Year,Month,Day,Hour,Minute,Value (Times are PST for temperature in C)
2014,03,29,00,00,7.10
2014,03,29,00,01,7.10
2014,03,29,00,02,7.10
2014,03,29,00,03,7.10
2014,03,29,00,04,7.10
2014,03,29,00,05,7.00
2014,03,29,00,06,7.00
2014,03,29,00,07,7.00
2014,03,29,00,08,7.00
2014,03,29,00,09,7.00
2014,03,29,00,10,7.00
2014,03,29,00,11,7.00
2014,03,29,00,12,6.90
2014,03,29,00,13,6.90
2014,03,29,00,14,6.90
2014,03,29,00,15,6.90
2014,03,29,00,16,6.90
2014,03,29,00,17,6.80
2014,03,29,00,18,6.80
2014,03,29,00,19,6.80
2014,03,29,00,20,6.80
2014,03,29,00,21,6.80
2014,03,29,00,22,6.80
2014,03,29,00,23,6.80
2014,03,29,00,24,6.70
2014,03,29,00,26,6.70
2014,03,29,00,27,6.70
2014,03,29,00,28,6.70
2014,03,29,00,31,6.70
2014,03,29,00,32,6.70
2014,03,29,00,33,6.70
2014,03,29,00,35,6.70
2014,03,29,00,36,6.70
2014,03,29,00,37,6.70
2014,03,29,00,38,6.70
2014,03,29,00,39,6.70
2014,03,29,00,40,6.70
2014,03,29,00,41,6.70
2014,03,29,00,42,6.70
2014,03,29,00,43,6.70
2014,03,29,00,44,6.70
2014,03,29,00,45,6.70
2014,03,29,00,46,6.70
2014,03,29,00,47,6.70
2014,03,29,00,48,6.70
2014,03,29,00,49,6.70
2014,03,29,00,50,6.60
2014,03,29,00,51,6.60
2014,03,29,00,52,6.60
2014,03,29,00,53,6.60
2014,03,29,00,54,6.60
2014,03,29,00,55,6.60
2014,03,29,00,56,6.60
2014,03,29,00,57,6.60
2014,03,29,00,58,6.60
2014,03,29,00,59,6.60
2014,03,29,01,00,6.60
2014,03,29,01,01,6.60
2014,03,29,01,02,6.60
2014,03,29,01,03,6.60
2014,03,29,01,04,6.60
2014,03,29,01,05,6.60
2014,03,29,01,06,6.60
2014,03,29,01,07,6.60
2014,03,29,01,08,6.60
2014,03,29,01,09,6.60
2014,03,29,01,10,6.60
2014,03,29,01,11,6.60
2014,03,29,01,12,6.60
2014,03,29,01,13,6.60
2014,03,29,01,14,6.60
2014,03,29,01,15,6.60
2014,03,29,01,16,6.60
2014,03,29,01,17,6.60
2014,03,29,01,18,6.60
2014,03,29,01,19,6.60
2014,03,29,01,20,6.60
2014,03,29,01,21,6.60
2014,03,29,01,22,6.60
2014,03,29,01,23,6.60
2014,03,29,01,24,6.60
2014,03,29,01,25,6.60
2014,03,29,01,26,6.60
2014,03,29,01,27,6.60
2014,03,29,01,28,6.60
2014,03,29,01,29,6.60
2014,03,29,01,30,6.60
2014,03,29,01,31,6.60
2014,03,29,01,32,6.60
2014,03,29,01,33,6.60
2014,03,29,01,34,6.60
2014,03,29,01,35,6.60
2014,03,29,01,36,6.60
2014,03,29,01,37,6.60
2014,03,29,01,38,6.60
2014,03,29,01,39,6.60
2014,03,29,01,40,6.60
2014,03,29,01,41,6.60
2014,03,29,01,42,6.60
2014,03,29,01,43,6.60
2014,03,29,01,44,6.60
2014,03,29,01,45,6.60
2014,03,29,01,46,6.60
2014,03,29,01,47,6.60
2014,03,29,01,48,6.60
2014,03,29,01,49,6.60
2014,03,29,01,50,6.60
2014,03,29,01,51,6.60
2014,03,29,01,52,6.60
2014,03,29,01,53,6.60
2014,03,29,01,54,6.60
2014,03,29,01,55,6.60
2014,03,29,01,56,6.60
2014,03,29,01,57,6.60
2014,03,29,01,58,6.60
2014,03,29,01,59,6.60
2014,03,29,02,00,6.60
2014,03,29,02,01,6.60
2014,03,29,02,02,6.60
2014,03,29,02,03,6.60
2014,03,29,02,04,6.60
2014,03,29,02,05,6.60
2014,03,29,02,06,6.60
2014,03,29,02,07,6.60
2014,03,29,02,08,6.60
2014,03,29,08,12,5.60
2014,03,29,08,13,5.60
2014,03,29,08,14,5.60
2014,03,29,08,15,5.70
2014,03,29,08,16,5.70
2014,03,29,08,17,5.70
2014,03,29,08,18,5.70
2014,03,29,08,19,5.70
2014,03,29,08,20,5.70
2014,03,29,08,21,5.70
2014,03,29,08,22,5.70
2014,03,29,08,23,5.70
2014,03,29,08,24,5.70
2014,03,29,08,25,5.70
2014,03,29,08,26,5.70
2014,03,29,08,27,5.70
2014,03,29,08,28,5.70
2014,03,29,08,29,5.80
2014,03,29,08,30,5.80
2014,03,29,08,31,5.80
2014,03,29,08,32,5.80
2014,03,29,08,33,5.80
2014,03,29,08,34,5.80
2014,03,29,08,35,5.80
2014,03,29,08,36,5.80
2014,03,29,08,37,5.80
2014,03,29,08,38,5.80
2014,03,29,08,39,5.80
2014,03,29,08,40,5.90
2014,03,29,08,41,5.90
2014,03,29,08,42,5.90
2014,03,29,08,43,5.90
2014,03,29,08,44,5.90
2014,03,29,08,45,5.90
2014,03,29,08,46,5.90
2014,03,29,08,47,6.00
2014,03,29,08,48,6.00
2014,03,29,08,49,6.00
2014,03,29,08,50,6.00
2014,03,29,08,51,6.00
2014,03,29,08,52,6.00
2014,03,29,08,53,6.00
2014,03,29,08,54,6.10
2014,03,29,08,55,6.10
2014,03,29,08,56,6.10
2014,03,29,08,57,6.10
2014,03,29,08,58,6.10
2014,03,29,08,59,6.10
2014,03,29,09,00,6.20
2014,03,29,09,01,6.20
2014,03,29,09,02,6.20
2014,03,29,09,03,6.20
2014,03,29,09,04,6.20
2014,03,29,09,05,6.20
2014,03,29,09,06,6.20
2014,03,29,09,07,6.20
2014,03,29,09,08,6.20
2014,03,29,09,09,6.20
2014,03,29,09,10,6.20
2014,03,29,09,11,6.30
2014,03,29,09,12,6.30
2014,03,29,09,13,6.30
2014,03,29,09,14,6.30
2014,03,29,09,15,6.30
2014,03,29,09,16,6.30
2014,03,29,09,17,6.30
2014,03,29,09,18,6.40
2014,03,29,09,19,6.40
2014,03,29,09,20,6.40
2014,03,29,09,21,6.40
2014,03,29,09,22,6.40
2014,03,29,09,23,6.40
2014,03,29,09,24,6.40
2014,03,29,09,25,6.40
2014,03,29,09,26,6.50
2014,03,29,09,27,6.60
2014,03,29,09,28,6.60
2014,03,29,09,29,6.60
2014,03,29,09,30,6.60
2014,03,29,09,31,6.60
2014,03,29,09,32,6.60
2014,03,29,09,33,6.60
2014,03,29,09,34,6.60
2014,03,29,09,35,6.60
2014,03,29,09,36,6.70
2014,03,29,09,37,6.70
2014,03,29,09,38,6.70
2014,03,29,09,39,6.70
2014,03,29,09,40,6.80
2014,03,29,09,41,6.80
2014,03,29,09,42,6.80
2014,03,29,09,43,6.80
2014,03,29,09,44,6.80
2014,03,29,09,45,6.80
2014,03,29,09,46,6.80
2014,03,29,09,47,6.80
2014,03,29,09,48,6.80
2014,03,29,09,49,6.90
2014,03,29,09,50,6.90
2014,03,29,09,51,6.90
2014,03,29,09,52,6.90
2014,03,29,09,53,6.90
2014,03,29,09,54,7.00
2014,03,29,09,55,7.00
2014,03,29,09,56,7.00
2014,03,29,09,57,7.00
2014,03,29,09,58,7.00
2014,03,29,09,59,7.10
2014,03,29,10,00,7.10
2014,03,29,10,01,7.10
2014,03,29,10,02,7.10
2014,03,29,10,03,7.10
2014,03,29,10,04,7.10
2014,03,29,10,05,7.10
2014,03,29,10,06,7.20
2014,03,29,10,07,7.20
2014,03,29,10,08,7.20
2014,03,29,10,09,7.20
2014,03,29,10,10,7.30
2014,03,29,10,11,7.30
2014,03,29,10,12,7.30
2014,03,29,10,13,7.30
2014,03,29,10,14,7.30
2014,03,29,10,15,7.40
2014,03,29,10,16,7.40
2014,03,29,10,17,7.40
2014,03,29,10,18,7.50
2014,03,29,10,19,7.50
2014,03,29,10,20,7.50
2014,03,29,10,21,7.60
2014,03,29,10,22,7.60
2014,03,29,10,23,7.60
2014,03,29,10,24,7.70
2014,03,29,10,25,7.70
2014,03,29,10,26,7.80
2014,03,29,10,27,7.80
2014,03,29,10,28,7.80
2014,03,29,10,29,7.80
2014,03,29,10,30,7.80
2014,03,29,10,31,7.80
2014,03,29,10,32,7.90
2014,03,29,10,33,7.90
2014,03,29,10,34,7.90
2014,03,29,10,35,7.90
2014,03,29,10,36,8.00
2014,03,29,10,37,8.00
2014,03,29,10,38,8.00
2014,03,29,10,39,8.00
2014,03,29,10,40,8.00
2014,03,29,10,41,8.00
2014,03,29,10,42,8.00
2014,03,29,10,43,8.10
2014,03,29,10,44,8.10
2014,03,29,10,45,8.00
2014,03,29,10,46,8.00
2014,03,29,10,47,8.00
2014,03,29,10,48,8.00
2014,03,29,10,49,8.00
2014,03,29,10,50,8.00
2014,03,29,10,51,8.00
2014,03,29,10,52,8.00
2014,03,29,10,53,8.00
2014,03,29,10,54,8.00
2014,03,29,10,55,8.00
2014,03,29,10,56,8.00
2014,03,29,10,57,8.10
2014,03,29,10,58,8.10
2014,03,29,10,59,8.10
2014,03,29,11,00,8.00
2014,03,29,11,01,8.00
2014,03,29,11,02,7.90
2014,03,29,11,03,7.90
2014,03,29,11,04,7.90
2014,03,29,11,05,7.80
2014,03,29,11,06,7.80
2014,03,29,11,07,7.80
2014,03,29,11,08,7.80
2014,03,29,11,09,7.80
2014,03,29,11,10,7.80
2014,03,29,11,11,7.90
2014,03,29,11,12,7.90
2014,03,29,11,13,7.90
2014,03,29,11,14,7.90
2014,03,29,11,15,7.90
2014,03,29,11,16,7.90
2014,03,29,11,17,7.90
2014,03,29,11,18,7.90
2014,03,29,11,19,7.90
2014,03,29,11,20,7.90
2014,03,29,11,21,7.90
2014,03,29,11,22,7.90
2014,03,29,11,23,7.80
2014,03,29,11,24,7.80
2014,03,29,11,25,7.80
2014,03,29,11,26,7.80
2014,03,29,11,27,7.80
2014,03,29,11,28,7.80
2014,03,29,11,29,7.80
2014,03,29,11,30,7.80
2014,03,29,11,31,7.80
2014,03,29,11,32,7.80
2014,03,29,11,33,7.80
2014,03,29,11,34,7.80
2014,03,29,11,35,7.80
2014,03,29,11,36,7.80
2014,03,29,11,37,7.80
2014,03,29,11,38,7.80
2014,03,29,11,39,7.80
2014,03,29,11,40,7.80
2014,03,29,11,41,7.80
2014,03,29,11,42,7.80
2014,03,29,11,43,7.80
2014,03,29,11,44,7.80
2014,03,29,11,45,7.80
2014,03,29,11,46,7.80
2014,03,29,11,47,7.90
2014,03,29,11,48,7.90
2014,03,29,11,49,7.90
2014,03,29,11,50,7.90
2014,03,29,11,51,7.90
2014,03,29,11,52,8.00
2014,03,29,11,53,7.90
2014,03,29,11,54,8.00
2014,03,29,11,55,8.00
2014,03,29,11,56,8.00
2014,03,29,11,57,8.00
2014,03,29,11,58,8.00
2014,03,29,11,59,8.10
2014,03,29,12,00,8.10
2014,03,29,12,01,8.10
2014,03,29,12,02,8.10
2014,03,29,12,03,8.20
2014,03,29,12,04,8.20
2014,03,29,12,05,8.10
2014,03,29,12,06,8.10
2014,03,29,12,07,8.10
2014,03,29,12,08,8.10
2014,03,29,12,09,8.20
2014,03,29,12,10,8.20
2014,03,29,12,11,8.20
2014,03,29,12,12,8.20
2014,03,29,12,13,8.20
2014,03,29,12,14,8.20
2014,03,29,12,15,8.20
2014,03,29,12,16,8.20
2014,03,29,12,17,8.20
2014,03,29,12,18,8.20
2014,03,29,12,19,8.20
2014,03,29,12,20,8.30
2014,03,29,12,21,8.30
2014,03,29,12,22,8.30
2014,03,29,12,23,8.30
2014,03,29,12,24,8.30
2014,03,29,12,25,8.30
2014,03,29,12,26,8.40
2014,03,29,12,27,8.40
2014,03,29,12,28,8.40
2014,03,29,12,29,8.40
2014,03,29,12,30,8.40
2014,03,29,12,31,8.40
2014,03,29,12,32,8.40
2014,03,29,12,33,8.40
2014,03,29,12,34,8.40
2014,03,29,12,35,8.50
2014,03,29,12,36,8.50
2014,03,29,12,37,8.50
2014,03,29,12,38,8.50
2014,03,29,12,39,8.50
2014,03,29,12,40,8.50
2014,03,29,12,41,8.50
2014,03,29,12,42,8.50
2014,03,29,12,43,8.50
2014,03,29,12,44,8.50
2014,03,29,12,45,8.50
2014,03,29,12,46,8.50
2014,03,29,12,47,8.50
2014,03,29,12,48,8.60
2014,03,29,12,49,8.60
2014,03,29,12,50,8.60
2014,03,29,12,51,8.70
2014,03,29,12,52,8.70
2014,03,29,12,53,8.70
2014,03,29,12,54,8.70
2014,03,29,12,55,8.70
2014,03,29,12,56,8.70
2014,03,29,12,57,8.70
2014,03,29,12,58,8.70
2014,03,29,12,59,8.70
2014,03,29,13,00,8.70
2014,03,29,13,01,8.70
2014,03,29,13,02,8.70
2014,03,29,13,03,8.80
2014,03,29,13,04,8.80
2014,03,29,13,05,8.70
2014,03,29,13,06,8.70
2014,03,29,13,07,8.70
2014,03,29,13,08,8.70
2014,03,29,13,09,8.70
2014,03,29,13,10,8.70
2014,03,29,13,11,8.70
2014,03,29,13,12,8.70
2014,03,29,13,13,8.70
2014,03,29,13,14,8.70
2014,03,29,13,15,8.80
2014,03,29,13,16,8.80
2014,03,29,13,17,8.80
2014,03,29,13,18,8.80
2014,03,29,13,19,8.80
2014,03,29,13,20,8.70
2014,03,29,13,21,8.70
2014,03,29,13,22,8.70
2014,03,29,13,23,8.70
2014,03,29,13,24,8.70
2014,03,29,13,25,8.70
2014,03,29,13,26,8.70
2014,03,29,13,27,8.70
2014,03,29,13,28,8.70
2014,03,29,13,29,8.70
2014,03,29,13,30,8.80
2014,03,29,13,31,8.90
2014,03,29,13,32,8.90
2014,03,29,13,33,8.90
2014,03,29,13,34,9.00
2014,03,29,13,35,9.00
2014,03,29,13,36,9.00
2014,03,29,13,37,9.10
2014,03,29,13,38,9.10
2014,03,29,13,39,9.10
2014,03,29,13,40,9.10
2014,03,29,13,41,9.10
2014,03,29,13,42,9.10
2014,03,29,13,43,9.10
2014,03,29,13,44,9.10
2014,03,29,13,45,9.10
2014,03,29,13,46,9.10
2014,03,29,13,47,9.10
2014,03,29,13,48,9.00
2014,03,29,13,49,9.00
2014,03,29,13,50,9.00
2014,03,29,13,51,9.00
2014,03,29,13,52,9.00
2014,03,29,13,53,9.00
2014,03,29,13,54,9.00
2014,03,29,13,55,9.00
2014,03,29,13,56,9.00
2014,03,29,13,57,9.00
2014,03,29,13,58,8.90
2014,03,29,13,59,8.90
2014,03,29,14,00,8.90
2014,03,29,14,01,8.90
2014,03,29,14,02,8.90
2014,03,29,14,03,8.90
2014,03,29,14,04,8.90
2014,03,29,14,05,8.80
2014,03,29,14,06,8.80
2014,03,29,14,07,8.70
2014,03,29,14,08,8.70
2014,03,29,14,09,8.60
2014,03,29,14,10,8.60
2014,03,29,14,11,8.50
2014,03,29,14,12,8.40
2014,03,29,14,13,8.30
2014,03,29,14,14,8.20
2014,03,29,14,15,8.20
2014,03,29,14,16,8.10
2014,03,29,14,17,8.00
2014,03,29,14,18,7.90
2014,03,29,14,19,7.90
2014,03,29,14,20,7.80
2014,03,29,14,21,7.80
2014,03,29,14,22,7.80
2014,03,29,14,23,7.80
2014,03,29,14,24,7.70
2014,03,29,14,25,7.70
2014,03,29,14,26,7.70
2014,03,29,14,27,7.70
2014,03,29,14,28,7.70
2014,03,29,14,29,7.70
2014,03,29,14,30,7.70
2014,03,29,14,31,7.70
2014,03,29,14,32,7.70
2014,03,29,14,33,7.70
2014,03,29,14,34,7.70
2014,03,29,14,35,7.70
2014,03,29,14,36,7.80
2014,03,29,14,37,7.80
2014,03,29,14,38,7.80
2014,03,29,14,39,7.80
2014,03,29,14,40,7.90
2014,03,29,14,41,7.90
2014,03,29,14,42,7.90
2014,03,29,14,43,8.00
2014,03,29,14,44,8.00
2014,03,29,14,45,8.00
2014,03,29,14,46,8.10
2014,03,29,14,47,8.10
2014,03,29,14,48,8.10
2014,03,29,14,49,8.10
2014,03,29,14,50,8.10
2014,03,29,14,51,8.10
2014,03,29,14,52,8.20
2014,03,29,14,53,8.20
2014,03,29,14,54,8.20
2014,03,29,14,55,8.30
2014,03,29,14,56,8.30
2014,03,29,14,57,8.30
2014,03,29,14,58,8.40
2014,03,29,14,59,8.40
2014,03,29,15,00,8.40
2014,03,29,15,01,8.50
2014,03,29,15,02,8.50
2014,03,29,15,03,8.50
2014,03,29,15,04,8.50
2014,03,29,15,05,8.50
2014,03,29,15,06,8.60
2014,03,29,15,07,8.60
2014,03,29,15,08,8.60
2014,03,29,15,09,8.60
2014,03,29,15,10,8.50
2014,03,29,15,11,8.50
2014,03,29,15,12,8.50
2014,03,29,15,13,8.50
2014,03,29,15,14,8.50
2014,03,29,15,15,8.60
2014,03,29,15,16,8.60
2014,03,29,15,17,8.60
2014,03,29,15,18,8.70
2014,03,29,15,19,8.70
2014,03,29,15,20,8.80
2014,03,29,15,21,8.90
2014,03,29,15,22,8.90
2014,03,29,15,23,9.00
2014,03,29,15,24,9.00
2014,03,29,15,25,9.00
2014,03,29,15,26,9.00
2014,03,29,15,27,9.00
2014,03,29,15,28,9.00
2014,03,29,15,29,8.90
2014,03,29,15,30,8.90
2014,03,29,15,31,8.90
2014,03,29,15,32,8.90
2014,03,29,15,33,8.90
2014,03,29,15,34,8.90
2014,03,29,15,35,8.90
2014,03,29,15,36,9.00
2014,03,29,15,37,9.00
2014,03,29,15,38,9.10
2014,03,29,15,39,9.10
2014,03,29,15,40,9.20
2014,03,29,15,41,9.20
2014,03,29,15,42,9.30
2014,03,29,15,43,9.30
2014,03,29,15,44,9.30
2014,03,29,15,45,9.30
2014,03,29,15,46,9.30
2014,03,29,15,47,9.30
2014,03,29,15,48,9.30
2014,03,29,15,49,9.30
2014,03,29,15,50,9.30
2014,03,29,15,51,9.30
2014,03,29,15,52,9.30
2014,03,29,15,53,9.30
2014,03,29,15,54,9.30
2014,03,29,15,55,9.20
2014,03,29,15,56,9.20
2014,03,29,15,57,9.20
2014,03,29,15,58,9.20
2014,03,29,15,59,9.20
2014,03,29,16,00,9.20
2014,03,29,16,01,9.20
2014,03,29,16,02,9.20
2014,03,29,16,03,9.20
2014,03,29,16,04,9.20
2014,03,29,16,05,9.20
2014,03,29,16,06,9.20
2014,03,29,16,07,9.20
2014,03,29,16,08,9.20
2014,03,29,16,09,9.20
2014,03,29,16,10,9.20
2014,03,29,16,11,9.20
2014,03,29,16,12,9.20
2014,03,29,16,13,9.30
2014,03,29,16,14,9.30
2014,03,29,16,15,9.30
2014,03,29,16,16,9.30
2014,03,29,16,17,9.30
2014,03,29,16,18,9.30
2014,03,29,16,19,9.30
2014,03,29,16,20,9.40
2014,03,29,16,21,9.40
2014,03,29,16,22,9.40
2014,03,29,16,23,9.40
2014,03,29,16,24,9.40
2014,03,29,16,25,9.50
2014,03,29,16,26,9.50
2014,03,29,16,27,9.50
2014,03,29,16,28,9.50
2014,03,29,16,29,9.50
2014,03,29,16,30,9.40
2014,03,29,16,31,9.40
2014,03,29,16,32,9.40
2014,03,29,16,33,9.40
2014,03,29,16,34,9.40
2014,03,29,16,35,9.40
2014,03,29,16,36,9.40
2014,03,29,16,37,9.40
2014,03,29,16,38,9.40
2014,03,29,16,39,9.40
2014,03,29,16,40,9.40
2014,03,29,16,41,9.30
2014,03,29,16,42,9.30
2014,03,29,16,43,9.30
2014,03,29,16,44,9.30
2014,03,29,16,45,9.30
2014,03,29,16,46,9.30
2014,03,29,16,47,9.30
2014,03,29,16,48,9.20
2014,03,29,16,49,9.20
2014,03,29,16,50,9.20
2014,03,29,16,51,9.20
2014,03,29,16,52,9.20
2014,03,29,16,53,9.20
2014,03,29,16,54,9.20
2014,03,29,16,55,9.20
2014,03,29,16,56,9.20
2014,03,29,16,57,9.20
2014,03,29,16,58,9.20
2014,03,29,16,59,9.20
2014,03,29,17,00,9.30
2014,03,29,17,01,9.30
2014,03,29,17,02,9.30
2014,03,29,17,03,9.30
2014,03,29,17,04,9.30
2014,03,29,17,05,9.30
2014,03,29,17,06,9.30
2014,03,29,17,07,9.40
2014,03,29,17,08,9.40
2014,03,29,17,09,9.40
2014,03,29,17,10,9.40
2014,03,29,17,11,9.40
2014,03,29,17,12,9.40
2014,03,29,17,13,9.40
2014,03,29,17,14,9.40
2014,03,29,17,15,9.40
2014,03,29,17,16,9.40
2014,03,29,17,17,9.40
2014,03,29,17,18,9.40
2014,03,29,17,19,9.40
2014,03,29,17,20,9.40
2014,03,29,17,21,9.30
2014,03,29,17,22,9.30
2014,03,29,17,23,9.30
2014,03,29,17,24,9.30
2014,03,29,17,25,9.30
2014,03,29,17,26,9.30
2014,03,29,17,27,9.30
2014,03,29,17,28,9.30
2014,03,29,17,29,9.30
2014,03,29,17,30,9.30
2014,03,29,17,31,9.30
2014,03,29,17,32,9.30
2014,03,29,17,33,9.20
2014,03,29,17,34,9.20
2014,03,29,17,35,9.20
2014,03,29,17,36,9.20
2014,03,29,17,37,9.20
2014,03,29,17,38,9.20
2014,03,29,17,39,9.20
2014,03,29,17,40,9.20
2014,03,29,17,41,9.20
2014,03,29,17,42,9.20
2014,03,29,17,43,9.20
2014,03,29,17,44,9.10
2014,03,29,17,45,9.10
2014,03,29,17,46,9.10
2014,03,29,17,47,9.10
2014,03,29,17,48,9.10
2014,03,29,17,49,9.00
2014,03,29,17,50,9.00
2014,03,29,17,51,9.00
2014,03,29,17,52,9.00
2014,03,29,17,53,9.00
2014,03,29,17,54,8.90
2014,03,29,17,55,8.90
2014,03,29,17,56,8.90
2014,03,29,17,57,8.90
2014,03,29,17,58,8.90
2014,03,29,17,59,8.90
2014,03,29,18,00,8.90
2014,03,29,18,01,8.80
2014,03,29,18,02,8.80
2014,03,29,18,03,8.80
2014,03,29,18,04,8.80
2014,03,29,18,05,8.70
2014,03,29,18,06,8.70
2014,03,29,18,07,8.70
2014,03,29,18,08,8.70
2014,03,29,18,09,8.70
2014,03,29,18,10,8.70
2014,03,29,18,11,8.70
2014,03,29,18,12,8.70
2014,03,29,18,13,8.70
2014,03,29,18,14,8.70
2014,03,29,18,15,8.70
2014,03,29,18,16,8.60
2014,03,29,18,17,8.60
2014,03,29,18,18,8.60
2014,03,29,18,19,8.60
2014,03,29,18,20,8.60
2014,03,29,18,21,8.60
2014,03,29,18,22,8.60
2014,03,29,18,23,8.50
2014,03,29,18,24,8.50
2014,03,29,18,25,8.50
2014,03,29,18,26,8.40
2014,03,29,18,27,8.40
2014,03,29,18,28,8.30
2014,03,29,18,29,8.30
2014,03,29,18,30,8.30
2014,03,29,18,31,8.20
2014,03,29,18,32,8.20
2014,03,29,18,33,8.20
2014,03,29,18,34,8.10
2014,03,29,18,35,8.10
2014,03,29,18,36,8.10
2014,03,29,18,37,8.00
2014,03,29,18,38,8.00
2014,03,29,18,39,8.00
2014,03,29,18,40,8.00
2014,03,29,18,41,7.90
2014,03,29,18,42,7.90
2014,03,29,18,43,7.80
2014,03,29,18,44,7.70
2014,03,29,18,45,7.70
2014,03,29,18,46,7.60
2014,03,29,18,47,7.60
2014,03,29,18,48,7.50
2014,03,29,18,49,7.40
2014,03,29,18,50,7.30
2014,03,29,18,51,7.30
2014,03,29,18,52,7.20
2014,03,29,18,53,7.20
2014,03,29,18,54,7.10
2014,03,29,18,55,7.10
2014,03,29,18,56,7.10
2014,03,29,18,57,7.00
2014,03,29,18,58,7.00
2014,03,29,18,59,7.00
2014,03,29,19,00,6.90
2014,03,29,19,01,6.90
2014,03,29,19,02,6.90
2014,03,29,19,03,6.80
2014,03,29,19,04,6.80
2014,03,29,19,05,6.80
2014,03,29,19,06,6.80
2014,03,29,19,07,6.80
2014,03,29,19,08,6.80
2014,03,29,19,09,6.80
2014,03,29,19,10,6.80
2014,03,29,19,11,6.80
2014,03,29,19,12,6.70
2014,03,29,19,13,6.70
2014,03,29,19,14,6.70
2014,03,29,19,15,6.70
2014,03,29,19,16,6.70
2014,03,29,19,17,6.70
2014,03,29,19,18,6.70
2014,03,29,19,19,6.70
2014,03,29,19,20,6.70
2014,03,29,19,21,6.60
2014,03,29,19,22,6.60
2014,03,29,19,23,6.60
2014,03,29,19,24,6.60
2014,03,29,19,25,6.60
2014,03,29,19,26,6.60
2014,03,29,19,27,6.60
2014,03,29,19,28,6.60
2014,03,29,19,29,6.60
2014,03,29,19,30,6.60
2014,03,29,19,31,6.60
2014,03,29,19,32,6.60
2014,03,29,19,33,6.60
2014,03,29,19,34,6.60
2014,03,29,19,35,6.60
2014,03,29,19,36,6.60
2014,03,29,19,37,6.60
2014,03,29,19,38,6.40
2014,03,29,19,39,6.40
2014,03,29,19,40,6.40
2014,03,29,19,41,6.40
2014,03,29,19,42,6.40
2014,03,29,19,43,6.40
2014,03,29,19,44,6.40
2014,03,29,19,45,6.40
2014,03,29,19,46,6.40
2014,03,29,19,47,6.40
2014,03,29,19,48,6.40
2014,03,29,19,49,6.40
2014,03,29,19,50,6.40
2014,03,29,19,51,6.40
2014,03,29,19,52,6.40
2014,03,29,19,53,6.40
2014,03,29,19,54,6.40
2014,03,29,19,55,6.40
2014,03,29,19,56,6.40
2014,03,29,19,57,6.40
2014,03,29,19,58,6.40
2014,03,29,19,59,6.40
2014,03,29,20,00,6.40
2014,03,29,20,01,6.40
2014,03,29,20,02,6.40
2014,03,29,20,03,6.40
2014,03,29,20,04,6.40
2014,03,29,20,05,6.40
2014,03,29,20,06,6.40
2014,03,29,20,07,6.40
2014,03,29,20,08,6.30
2014,03,29,20,09,6.30
2014,03,29,20,10,6.30
2014,03,29,20,11,6.30
2014,03,29,20,12,6.30
2014,03,29,20,13,6.30
2014,03,29,20,14,6.30
2014,03,29,20,15,6.30
2014,03,29,20,16,6.30
2014,03,29,20,17,6.30
2014,03,29,20,18,6.30
2014,03,29,20,19,6.30
2014,03,29,20,20,6.30
2014,03,29,20,21,6.30
2014,03,29,20,22,6.30
2014,03,29,20,23,6.30
2014,03,29,20,24,6.30
2014,03,29,20,25,6.30
2014,03,29,20,26,6.30
2014,03,29,20,27,6.30
2014,03,29,20,28,6.30
2014,03,29,20,29,6.30
2014,03,29,20,30,6.30
2014,03,29,20,31,6.30
2014,03,29,20,32,6.30
2014,03,29,20,33,6.30
2014,03,29,20,34,6.30
2014,03,29,20,35,6.30
2014,03,29,20,36,6.30
2014,03,29,20,37,6.30
2014,03,29,20,38,6.30
2014,03,29,20,39,6.20
2014,03,29,20,40,6.20
2014,03,29,20,41,6.20
2014,03,29,20,42,6.20
2014,03,29,20,43,6.30
2014,03,29,20,44,6.30
2014,03,29,20,45,6.30
2014,03,29,20,46,6.30
2014,03,29,20,47,6.30
2014,03,29,20,48,6.30
2014,03,29,20,49,6.30
2014,03,29,20,50,6.30
2014,03,29,20,51,6.30
2014,03,29,20,52,6.30
2014,03,29,20,53,6.30
2014,03,29,20,54,6.30
2014,03,29,20,55,6.30
2014,03,29,20,56,6.30
2014,03,29,20,57,6.30
2014,03,29,20,58,6.30
2014,03,29,20,59,6.30
2014,03,29,21,00,6.30
2014,03,29,21,01,6.30
2014,03,29,21,02,6.30
2014,03,29,21,03,6.30
2014,03,29,21,04,6.30
2014,03,29,21,05,6.30
2014,03,29,21,06,6.30
2014,03,29,21,07,6.20
2014,03,29,21,08,6.20
2014,03,29,21,09,6.20
2014,03,29,21,10,6.20
2014,03,29,21,11,6.20
2014,03,29,21,12,6.20
2014,03,29,21,13,6.20
2014,03,29,21,14,6.20
2014,03,29,21,15,6.20
2014,03,29,21,16,6.20
2014,03,29,21,17,6.20
2014,03,29,21,18,6.20
2014,03,29,21,19,6.20
2014,03,29,21,20,6.20
2014,03,29,21,21,6.20
2014,03,29,21,22,6.20
2014,03,29,21,23,6.20
2014,03,29,21,24,6.20
2014,03,29,21,25,6.20
2014,03,29,21,26,6.20
2014,03,29,21,27,6.20
2014,03,29,21,28,6.20
2014,03,29,21,29,6.20
2014,03,29,21,30,6.20
2014,03,29,21,31,6.20
2014,03,29,21,32,6.20
2014,03,29,21,33,6.20
2014,03,29,21,34,6.20
2014,03,29,21,35,6.20
2014,03,29,21,36,6.20
2014,03,29,21,37,6.20
2014,03,29,21,38,6.30
2014,03,29,21,39,6.30
2014,03,29,21,40,6.30
2014,03,29,21,41,6.30
2014,03,29,21,42,6.30
2014,03,29,21,43,6.30
2014,03,29,21,44,6.30
2014,03,29,21,45,6.30
2014,03,29,21,46,6.30
2014,03,29,21,47,6.20
2014,03,29,21,48,6.20
2014,03,29,21,49,6.20
2014,03,29,21,50,6.20
2014,03,29,21,51,6.20
2014,03,29,21,52,6.20
2014,03,29,21,53,6.20
2014,03,29,21,54,6.20
2014,03,29,21,55,6.20
2014,03,29,21,56,6.20
2014,03,29,21,57,6.20
2014,03,29,21,58,6.20
2014,03,29,21,59,6.20
2014,03,29,22,00,6.20
2014,03,29,22,01,6.20
2014,03,29,22,02,6.20
2014,03,29,22,03,6.20
2014,03,29,22,04,6.20
2014,03,29,22,05,6.20
2014,03,29,22,06,6.20
2014,03,29,22,07,6.20
2014,03,29,22,08,6.20
2014,03,29,22,09,6.20
2014,03,29,22,10,6.20
2014,03,29,22,11,6.20
2014,03,29,22,12,6.20
2014,03,29,22,13,6.20
2014,03,29,22,14,6.20
2014,03,29,22,15,6.20
2014,03,29,22,16,6.20
2014,03,29,22,17,6.20
2014,03,29,22,18,6.20
2014,03,29,22,19,6.20
2014,03,29,22,20,6.20
2014,03,29,22,21,6.20
2014,03,29,22,22,6.20
2014,03,29,22,23,6.20
2014,03,29,22,24,6.20
2014,03,29,22,25,6.20
2014,03,29,22,26,6.20
2014,03,29,22,27,6.20
2014,03,29,22,28,6.20
2014,03,29,22,29,6.20
2014,03,29,22,30,6.20
2014,03,29,22,31,6.20
2014,03,29,22,32,6.20
2014,03,29,22,33,6.20
2014,03,29,22,34,6.20
2014,03,29,22,35,6.20
2014,03,29,22,36,6.20
2014,03,29,22,37,6.20
2014,03,29,22,38,6.10
2014,03,29,22,39,6.10
2014,03,29,22,40,6.10
2014,03,29,22,41,6.10
2014,03,29,22,42,6.10
2014,03,29,22,43,6.10
2014,03,29,22,44,6.10
2014,03,29,22,45,6.10
2014,03,29,22,46,6.10
2014,03,29,22,47,6.10
2014,03,29,22,48,6.10
2014,03,29,22,49,6.10
2014,03,29,22,50,6.10
2014,03,29,22,51,6.10
2014,03,29,22,52,6.10
2014,03,29,22,53,6.10
2014,03,29,22,54,6.10
2014,03,29,22,55,6.10
2014,03,29,22,56,6.10
2014,03,29,22,57,6.10
2014,03,29,22,58,6.10
2014,03,29,22,59,6.10
2014,03,29,23,00,6.10
2014,03,29,23,01,6.10
2014,03,29,23,02,6.10
2014,03,29,23,03,6.10
2014,03,29,23,04,6.10
2014,03,29,23,05,6.10
2014,03,29,23,06,6.10
2014,03,29,23,07,6.10
2014,03,29,23,08,6.10
2014,03,29,23,09,6.10
2014,03,29,23,10,6.10
2014,03,29,23,11,6.10
2014,03,29,23,12,6.10
2014,03,29,23,13,6.10
2014,03,29,23,14,6.10
2014,03,29,23,15,6.10
2014,03,29,23,16,6.20
2014,03,29,23,17,6.20
2014,03,29,23,18,6.20
2014,03,29,23,19,6.20
2014,03,29,23,20,6.20
2014,03,29,23,21,6.20
2014,03,29,23,22,6.20
2014,03,29,23,23,6.20
2014,03,29,23,24,6.20
2014,03,29,23,25,6.20
2014,03,29,23,26,6.20
2014,03,29,23,27,6.20
2014,03,29,23,28,6.20
2014,03,29,23,29,6.20
2014,03,29,23,30,6.20
2014,03,29,23,31,6.20
2014,03,29,23,32,6.20
2014,03,29,23,33,6.20
2014,03,29,23,34,6.20
2014,03,29,23,35,6.20
2014,03,29,23,36,6.30
2014,03,29,23,37,6.30
2014,03,29,23,38,6.30
2014,03,29,23,39,6.30
2014,03,29,23,40,6.30
2014,03,29,23,41,6.30
2014,03,29,23,42,6.30
2014,03,29,23,43,6.30
2014,03,29,23,44,6.30
2014,03,29,23,45,6.30
2014,03,29,23,46,6.30
2014,03,29,23,47,6.30
2014,03,29,23,48,6.30
2014,03,29,23,49,6.30
2014,03,29,23,50,6.40
2014,03,29,23,51,6.40
2014,03,29,23,52,6.40
2014,03,29,23,53,6.40
2014,03,29,23,54,6.40
2014,03,29,23,55,6.40
2014,03,29,23,56,6.40
2014,03,29,23,57,6.40
2014,03,29,23,58,6.40
2014,03,29,23,59,6.40
